GW3604 Weather Reports


Display with metric or nautical units.
time (UTC)temp
F
wind
direction
speed
MPH
gust
MPH
rain 1hr
in
rain 24hr
in
rain mn
in
humidity
%
barometer
mb
20260504234003 69 0 0.0 0.0 0.00 0.00 0.00 29 1006.3
20260504233503 69 254 0.0 6.0 0.00 0.00 0.00 29 1006.3
20260504233003 69 219 1.0 10.0 0.00 0.00 0.00 29 1006.2
20260504232503 70 209 1.0 10.0 0.00 0.00 0.00 28 1006.1
20260504232003 70 226 1.0 9.0 0.00 0.00 0.00 28 1006.0
20260504231003 70 222 1.0 8.0 0.00 0.00 0.00 27 1005.9
20260504230502 70 207 1.0 8.0 0.00 0.00 0.00 28 1005.8
20260504224503 71 178 1.0 7.0 0.00 0.00 0.00 28 1005.7
20260504223503 71 229 1.0 6.0 0.00 0.00 0.00 27 1005.6
20260504223003 72 248 2.0 6.0 0.00 0.00 0.00 28 1005.5
20260504222503 72 248 1.0 6.0 0.00 0.00 0.00 28 1005.5
20260504222003 72 253 1.0 7.0 0.00 0.00 0.00 28 1005.5
20260504221503 72 254 1.0 10.0 0.00 0.00 0.00 28 1005.4
20260504221003 72 242 1.0 10.0 0.00 0.00 0.00 27 1005.4
20260504220502 72 224 2.0 8.0 0.00 0.00 0.00 27 1005.5
20260504220003 72 242 3.0 11.0 0.00 0.00 0.00 27 1005.4
20260504215003 72 267 2.0 7.0 0.00 0.00 0.00 27 1005.5
20260504214503 72 299 1.0 10.0 0.00 0.00 0.00 28 1005.4
20260504214003 73 304 1.0 10.0 0.00 0.00 0.00 28 1005.5
20260504213502 73 267 0.0 4.0 0.00 0.00 0.00 27 1005.6
20260504213003 73 277 1.0 5.0 0.00 0.00 0.00 27 1005.6
20260504212503 73 270 2.0 12.0 0.00 0.00 0.00 28 1005.6
20260504212002 73 270 3.0 12.0 0.00 0.00 0.00 25 1005.7
20260504210503 74 289 3.0 14.0 0.00 0.00 0.00 26 1005.5
20260504205002 74 254 2.0 7.0 0.00 0.00 0.00 28 1005.5
20260504203503 75 273 2.0 6.0 0.00 0.00 0.00 24 1005.6
20260504203002 75 270 2.0 6.0 0.00 0.00 0.00 26 1005.6
20260504202502 75 234 2.0 9.0 0.00 0.00 0.00 23 1005.7
20260504202003 75 240 3.0 9.0 0.00 0.00 0.00 23 1005.7
20260504201503 75 223 2.0 9.0 0.00 0.00 0.00 25 1005.5
20260504201002 75 223 2.0 11.0 0.00 0.00 0.00 23 1005.6
20260504200503 74 282 2.0 11.0 0.00 0.00 0.00 24 1005.5
20260504200003 73 256 3.0 11.0 0.00 0.00 0.00 26 1005.5
20260504195502 73 232 3.0 11.0 0.00 0.00 0.00 24 1005.6
20260504194003 72 270 3.0 18.0 0.00 0.00 0.00 25 1005.7
20260504193503 72 286 2.0 7.0 0.00 0.00 0.00 28 1005.7
20260504193003 72 271 2.0 7.0 0.00 0.00 0.00 27 1005.7
20260504192503 73 228 3.0 13.0 0.00 0.00 0.00 27 1005.8
20260504192003 74 227 3.0 13.0 0.00 0.00 0.00 24 1005.8
20260504191502 74 227 3.0 13.0 0.00 0.00 0.00 24 1005.8
20260504191003 75 223 3.0 13.0 0.00 0.00 0.00 24 1005.8
20260504190502 75 229 3.0 13.0 0.00 0.00 0.00 23 1005.8
20260504190003 75 220 2.0 13.0 0.00 0.00 0.00 22 1005.8
20260504185503 75 244 3.0 10.0 0.00 0.00 0.00 21 1005.8
20260504185003 75 269 3.0 10.0 0.00 0.00 0.00 21 1006.0
20260504184503 75 254 3.0 11.0 0.00 0.00 0.00 23 1005.9
20260504184003 75 254 3.0 11.0 0.00 0.00 0.00 22 1006.0
20260504182502 75 257 3.0 15.0 0.00 0.00 0.00 25 1006.3
20260504182003 75 272 3.0 9.0 0.00 0.00 0.00 24 1006.3
20260504181503 74 279 2.0 8.0 0.00 0.00 0.00 24 1006.3
20260504181002 74 292 2.0 9.0 0.00 0.00 0.00 22 1006.3
20260504180503 74 281 3.0 9.0 0.00 0.00 0.00 25 1006.3
20260504175503 74 279 3.0 11.0 0.00 0.00 0.00 24 1006.4
20260504175003 74 269 3.0 9.0 0.00 0.00 0.00 24 1006.3
20260504174503 74 277 3.0 9.0 0.00 0.00 0.00 23 1006.5
20260504173503 73 260 3.0 10.0 0.00 0.00 0.00 23 1006.6
20260504173003 73 281 3.0 10.0 0.00 0.00 0.00 24 1006.6
20260504172502 73 284 4.0 11.0 0.00 0.00 0.00 27 1006.7
20260504172002 73 287 4.0 11.0 0.00 0.00 0.00 27 1006.7
20260504171503 73 301 4.0 10.0 0.00 0.00 0.00 27 1006.6
20260504171002 72 293 4.0 10.0 0.00 0.00 0.00 26 1006.8
20260504150503 68 223 3.0 13.0 0.00 0.00 0.00 31 1007.9
20260504141003 64 234 2.0 10.0 0.00 0.00 0.00 35 1008.4
20260504140502 63 269 1.0 7.0 0.00 0.00 0.00 36 1008.4
20260504130503 57 234 2.0 11.0 0.00 0.00 0.00 44 1009.0
20260504110502 46 0 0.0 0.0 0.00 0.03 0.00 60 1009.4
20260504100503 44 0 0.0 0.0 0.00 0.03 0.00 62 1009.6
20260504082003 43 0 0.0 0.0 0.00 0.03 0.00 63 1009.5
20260504081503 43 0 0.0 0.0 0.00 0.03 0.00 64 1009.5
20260504081003 43 0 0.0 0.0 0.00 0.03 0.00 65 1009.5
20260504080503 42 0 0.0 0.0 0.00 0.03 0.00 65 1009.5
20260504050503 36 0 0.0 0.0 0.00 0.03 0.00 80 1009.5
20260504050003 36 0 0.0 0.0 0.00 0.03 0.00 79 1009.5
20260504045503 36 0 0.0 0.0 0.00 0.03 0.00 78 1009.6
20260504045003 36 0 0.0 0.0 0.00 0.03 0.00 77 1009.7
20260504044504 36 0 0.0 0.0 0.00 0.03 0.00 77 1009.6
20260504044002 36 0 0.0 0.0 0.00 0.03 0.00 77 1009.6
20260504043003 36 0 0.0 0.0 0.00 0.03 0.00 77 1009.5
20260504042003 36 0 0.0 0.0 0.00 0.03 0.00 76 1009.6
20260504041503 36 0 0.0 0.0 0.00 0.03 0.00 76 1009.5
20260504040503 36 0 0.0 0.0 0.00 0.03 0.00 75 1009.5
20260504034503 37 0 0.0 0.0 0.00 0.03 0.03 74 1009.4
20260504033503 37 0 0.0 0.0 0.00 0.03 0.03 74 1009.4
20260504032503 38 0 0.0 0.0 0.00 0.03 0.03 72 1009.4
20260504032004 38 0 0.0 0.0 0.00 0.03 0.03 72 1009.3
20260504031503 38 0 0.0 0.0 0.00 0.03 0.03 71 1009.3
20260504031003 38 0 0.0 0.0 0.00 0.03 0.03 71 1009.4
20260504030503 38 0 0.0 0.0 0.00 0.03 0.03 70 1009.4
20260504030004 38 0 0.0 0.0 0.00 0.03 0.03 69 1009.4
20260504025503 39 0 0.0 0.0 0.00 0.03 0.03 69 1009.3
20260504024503 39 0 0.0 0.0 0.00 0.03 0.03 68 1009.3
20260504023503 40 0 0.0 0.0 0.00 0.03 0.03 67 1009.2
20260504023003 40 0 0.0 0.0 0.00 0.03 0.03 67 1009.2
20260504021503 41 0 0.0 0.0 0.00 0.03 0.03 65 1009.1
20260504021003 41 0 0.0 0.0 0.00 0.03 0.03 64 1009.1
20260504020503 41 0 0.0 0.0 0.00 0.03 0.03 64 1009.0
20260504020004 42 0 0.0 0.0 0.00 0.03 0.03 63 1009.0
20260504015503 42 0 0.0 0.0 0.00 0.03 0.03 62 1009.0
20260504015003 42 0 0.0 0.0 0.00 0.03 0.03 62 1008.9
20260504014503 43 0 0.0 0.0 0.00 0.03 0.03 62 1008.9
20260504013502 43 0 0.0 0.0 0.00 0.03 0.03 61 1008.9
20260504012503 44 0 0.0 0.0 0.00 0.03 0.03 58 1008.9
20260504012003 44 0 0.0 0.0 0.00 0.03 0.03 58 1008.8
20260504011502 45 0 0.0 0.0 0.00 0.03 0.03 57 1008.7
20260504011003 45 0 0.0 0.0 0.00 0.03 0.03 56 1008.6
20260504010503 46 0 0.0 0.0 0.00 0.03 0.03 55 1008.6
20260504010004 46 0 0.0 0.0 0.00 0.03 0.03 54 1008.5
20260504005503 46 0 0.0 0.0 0.00 0.03 0.03 54 1008.5
20260504005004 47 0 0.0 0.0 0.00 0.03 0.03 53 1008.4
20260504004503 47 0 0.0 0.0 0.00 0.03 0.03 51 1008.4
20260504004002 48 0 0.0 0.0 0.00 0.03 0.03 50 1008.4
20260504003503 48 0 0.0 0.0 0.00 0.03 0.03 50 1008.2
20260504003004 48 0 0.0 0.0 0.00 0.03 0.03 50 1008.2
20260504002503 49 0 0.0 0.0 0.00 0.03 0.03 50 1008.1
20260504002002 49 0 0.0 0.0 0.00 0.03 0.03 47 1008.0
20260504001503 49 0 0.0 0.0 0.00 0.03 0.03 45 1008.0
20260504001003 50 0 0.0 0.0 0.00 0.03 0.03 45 1007.9
20260504000503 50 0 0.0 0.0 0.00 0.03 0.03 46 1007.9
20260504000003 50 0 0.0 0.0 0.00 0.03 0.03 46 1007.9
20260503235503 50 0 0.0 0.0 0.00 0.03 0.03 45 1007.8
20260503234503 50 301 0.0 4.0 0.00 0.03 0.03 45 1007.6